This is the latest recevied weather packets stored in our database for station/object K1AWR. If no packets are shown the sender has not sent any weather packets the latest 10 day(s).
| Time | Temp. | Humidity | Pressure | Rain* | Wind** | Luminosity | Snow |
|---|---|---|---|---|---|---|---|
| 1777485795 | 21.11° C | 44% | 1013.6 hPa | 0 mm | - | 414 W/m² | - |
| 1777485491 | 20° C | 43% | 1013.9 hPa | 0 mm | - | 504 W/m² | - |
| 1777485187 | 21.11° C | 41% | 1013.7 hPa | 0 mm | - | 603 W/m² | - |
| 1777484884 | 20° C | 44% | 1013.6 hPa | 0 mm | - | 550 W/m² | - |
| 1777484581 | 20° C | 42% | 1014.1 hPa | 0 mm | - | 512 W/m² | - |
| 1777484277 | 20° C | 47% | 1014.4 hPa | 0 mm | - | 484 W/m² | - |
| 1777483973 | 18.89° C | 46% | 1014.2 hPa | 0 mm | - | 457 W/m² | - |
| 1777483670 | 19.44° C | 46% | 1014.5 hPa | 0 mm | - | 444 W/m² | - |
| 1777483365 | 20° C | 44% | 1014.6 hPa | 0 mm | - | 453 W/m² | - |
| 1777483061 | 20° C | 44% | 1014.4 hPa | 0 mm | - | 385 W/m² | - |
| 1777482758 | 18.89° C | 47% | 1014.5 hPa | 0 mm | - | 492 W/m² | - |
| 1777482454 | 20° C | 45% | 1014.4 hPa | 0 mm | - | 559 W/m² | - |
| 1777482152 | 20° C | 47% | 1014.5 hPa | 0 mm | - | 523 W/m² | - |
| 1777481850 | 19.44° C | 47% | 1014.4 hPa | 0 mm | - | 431 W/m² | - |
| 1777481546 | 19.44° C | 43% | 1014.5 hPa | 0 mm | - | 301 W/m² | - |
| 1777481243 | 20° C | 44% | 1014.6 hPa | 0 mm | - | 547 W/m² | - |
| 1777480941 | 19.44° C | 50% | 1014.5 hPa | 0 mm | - | 275 W/m² | - |
| 1777480636 | 19.44° C | 47% | 1014.8 hPa | 0 mm | - | 732 W/m² | - |
| 1777480334 | 19.44° C | 44% | 1014.7 hPa | 0 mm | - | 536 W/m² | - |
| 1777480029 | 19.44° C | 44% | 1014.5 hPa | 0 mm | - | 536 W/m² | - |
| 1777479726 | 19.44° C | 44% | 1014.8 hPa | 0 mm | - | 536 W/m² | - |
| 1777479424 | 18.89° C | 44% | 1014.8 hPa | 0 mm | - | 655 W/m² | - |
| 1777479120 | 18.89° C | 47% | 1014.8 hPa | 0 mm | - | 714 W/m² | - |
| 1777478817 | 18.89° C | 47% | 1014.9 hPa | 0 mm | - | 714 W/m² | - |
| 1777478513 | 17.22° C | 49% | 1014.7 hPa | 0 mm | - | 312 W/m² | - |
* Rain latest hour (hover to see other rain measurements)
** Current wind speed in m/s (hover to see current wind gust speed)